When you browse on this site, cookies collect data to enhance your experience and personalize the content and advertising you see.
Visit our Privacy Policy to learn more. By continuing to use the site, you agree to this use of cookies and data.
  • In Hungary
  • List of Countries
  • For 7 days
  • Water Temperature
  • Weather Map
  • News
  • Weather Widgets
  • user-avatar
    Login

    Hourly Weather Banmankhi

    Today, 22 August, Thursday

    Time Temperature Precipitation Wind Pressure Humidity
    00:00 +31°C° 0 mm 1 mps 748 mmHg 71%
    01:00 +31°C° 0 mm 1 mps 748 mmHg 72%
    02:00 +29°C° 0 mm 0 mps 747 mmHg 73%
    03:00 +28°C° 0 mm 0 mps 747 mmHg 73%
    04:00 +28°C° 0 mm 0 mps 746 mmHg 74%
    05:00 +28°C° 0 mm 0 mps 746 mmHg 76%
    06:00 +28°C° 0 mm 0 mps 747 mmHg 80%
    07:00 +29°C° 0 mm 0 mps 747 mmHg 74%
    08:00 +33°C° 0 mm 1 mps 747 mmHg 68%
    09:00 +34°C° 0 mm 1 mps 747 mmHg 62%
    10:00 +35°C° 0 mm 1 mps 747 mmHg 58%
    11:00 +36°C° 0 mm 1 mps 747 mmHg 54%
    12:00 +37°C° 0 mm 1 mps 747 mmHg 50%
    13:00 +37°C° 0 mm 1 mps 747 mmHg 49%
    14:00 +39°C° 0 mm 1 mps 746 mmHg 47%
    15:00 +39°C° 0 mm 1 mps 745 mmHg 46%
    16:00 +39°C° 0 mm 1 mps 745 mmHg 48%
    17:00 +37°C° 0 mm 1 mps 745 mmHg 51%
    18:00 +37°C° 0 mm 2 mps 746 mmHg 53%
    19:00 +36°C° 0 mm 2 mps 746 mmHg 56%
    20:00 +36°C° 0 mm 2 mps 747 mmHg 59%
    21:00 +34°C° 0 mm 1 mps 747 mmHg 61%
    22:00 +33°C° 0 mm 1 mps 747 mmHg 63%
    23:00 +33°C° 0 mm 1 mps 747 mmHg 65%

    Tomorrow, 23 August, Friday

    Time Temperature Precipitation Wind Pressure Humidity
    00:00 +33°C° 0 mm 1 mps 747 mmHg 67%
    01:00 +32°C° 0 mm 1 mps 747 mmHg 68%
    02:00 +32°C° 0 mm 1 mps 747 mmHg 70%
    03:00 +32°C° 0 mm 1 mps 746 mmHg 71%
    04:00 +31°C° 0.4 mm 1 mps 746 mmHg 74%
    05:00 +31°C° 0.4 mm 2 mps 747 mmHg 76%
    06:00 +31°C° 0.4 mm 3 mps 747 mmHg 79%
    07:00 +32°C° 0.5 mm 4 mps 747 mmHg 77%
    08:00 +32°C° 0.5 mm 4 mps 748 mmHg 76%
    09:00 +33°C° 0.5 mm 5 mps 748 mmHg 75%
    10:00 +34°C° 0.3 mm 5 mps 748 mmHg 69%
    11:00 +35°C° 0.3 mm 4 mps 748 mmHg 64%
    12:00 +36°C° 0.3 mm 4 mps 748 mmHg 59%
    13:00 +36°C° 0 mm 4 mps 748 mmHg 59%
    14:00 +36°C° 0 mm 4 mps 747 mmHg 60%
    15:00 +36°C° 0 mm 4 mps 746 mmHg 60%
    16:00 +35°C° 0.2 mm 4 mps 746 mmHg 63%
    17:00 +34°C° 0.2 mm 3 mps 746 mmHg 67%
    18:00 +33°C° 0.2 mm 3 mps 746 mmHg 71%
    19:00 +33°C° 0 mm 3 mps 747 mmHg 74%
    20:00 +31°C° 0 mm 2 mps 748 mmHg 76%
    21:00 +31°C° 0 mm 2 mps 748 mmHg 79%
    22:00 +30°C° 1 mm 3 mps 748 mmHg 80%
    23:00 +30°C° 1 mm 3 mps 748 mmHg 81%

    Day after tomorrow, 24 August, Saturday

    Time Temperature Precipitation Wind Pressure Humidity
    00:00 +30°C° 1 mm 3 mps 748 mmHg 83%
    01:00 +30°C° 1.8 mm 4 mps 748 mmHg 83%
    02:00 +30°C° 1.8 mm 4 mps 748 mmHg 83%
    03:00 +30°C° 1.8 mm 4 mps 747 mmHg 83%
    04:00 +29°C° 2.2 mm 5 mps 748 mmHg 85%
    05:00 +29°C° 2.2 mm 6 mps 748 mmHg 88%
    06:00 +28°C° 2.2 mm 6 mps 748 mmHg 90%
    07:00 +28°C° 2 mm 6 mps 748 mmHg 91%
    08:00 +28°C° 2 mm 6 mps 749 mmHg 92%
    09:00 +28°C° 2 mm 5 mps 749 mmHg 93%
    10:00 +28°C° 0.4 mm 6 mps 749 mmHg 92%
    11:00 +28°C° 0.4 mm 6 mps 749 mmHg 91%
    12:00 +28°C° 0.4 mm 7 mps 750 mmHg 89%
    13:00 +29°C° 0 mm 6 mps 749 mmHg 86%
    14:00 +30°C° 0 mm 6 mps 748 mmHg 83%
    15:00 +30°C° 0 mm 6 mps 747 mmHg 80%
    16:00 +30°C° 0 mm 5 mps 747 mmHg 81%
    17:00 +30°C° 0 mm 5 mps 746 mmHg 81%
    18:00 +30°C° 0 mm 4 mps 746 mmHg 81%
    19:00 +30°C° 0 mm 4 mps 747 mmHg 83%
    20:00 +29°C° 0 mm 4 mps 747 mmHg 85%
    21:00 +29°C° 0 mm 4 mps 748 mmHg 87%
    22:00 +29°C° 0.1 mm 5 mps 748 mmHg 88%
    23:00 +28°C° 0.1 mm 5 mps 748 mmHg 89%

    25 August, Sunday

    Time Temperature Precipitation Wind Pressure Humidity
    00:00 +28°C° 0.1 mm 5 mps 748 mmHg 90%
    01:00 +28°C° 0.1 mm 5 mps 748 mmHg 91%
    02:00 +28°C° 0.1 mm 5 mps 748 mmHg 91%
    03:00 +27°C° 0.1 mm 5 mps 747 mmHg 92%
    04:00 +27°C° 0 mm 5 mps 748 mmHg 92%
    05:00 +27°C° 0 mm 5 mps 748 mmHg 92%
    06:00 +27°C° 0 mm 5 mps 748 mmHg 92%
    07:00 +28°C° 0 mm 5 mps 748 mmHg 88%
    08:00 +29°C° 0 mm 6 mps 749 mmHg 84%
    09:00 +30°C° 0 mm 7 mps 749 mmHg 80%
    10:00 +32°C° 0.2 mm 7 mps 749 mmHg 77%
    11:00 +32°C° 0.2 mm 7 mps 749 mmHg 74%
    12:00 +33°C° 0.2 mm 7 mps 749 mmHg 71%
    13:00 +34°C° 0.3 mm 7 mps 748 mmHg 68%
    14:00 +34°C° 0.3 mm 6 mps 747 mmHg 65%
    15:00 +35°C° 0.3 mm 6 mps 747 mmHg 62%
    16:00 +34°C° 0 mm 5 mps 747 mmHg 66%
    17:00 +33°C° 0 mm 4 mps 747 mmHg 69%
    18:00 +33°C° 0 mm 3 mps 747 mmHg 73%
    19:00 +31°C° 0 mm 3 mps 747 mmHg 74%
    20:00 +31°C° 0 mm 2 mps 748 mmHg 76%
    21:00 +30°C° 0 mm 2 mps 749 mmHg 78%
    22:00 +30°C° 0.2 mm 2 mps 748 mmHg 80%
    23:00 +29°C° 0.2 mm 2 mps 748 mmHg 82%

    26 August, Monday

    Time Temperature Precipitation Wind Pressure Humidity
    00:00 +29°C° 0.2 mm 2 mps 748 mmHg 84%
    01:00 +29°C° 0 mm 2 mps 748 mmHg 84%
    02:00 +29°C° 0 mm 2 mps 748 mmHg 84%
    03:00 +29°C° 0 mm 2 mps 748 mmHg 84%
    04:00 +29°C° 0 mm 2 mps 748 mmHg 85%
    05:00 +28°C° 0 mm 2 mps 748 mmHg 87%
    06:00 +28°C° 0 mm 2 mps 748 mmHg 88%
    07:00 +29°C° 0 mm 3 mps 748 mmHg 82%
    08:00 +31°C° 0 mm 3 mps 749 mmHg 77%
    09:00 +33°C° 0 mm 4 mps 749 mmHg 71%
    10:00 +35°C° 0 mm 4 mps 749 mmHg 65%
    11:00 +36°C° 0 mm 4 mps 748 mmHg 59%
    12:00 +37°C° 0 mm 4 mps 748 mmHg 53%
    13:00 +37°C° 0 mm 4 mps 747 mmHg 51%
    14:00 +38°C° 0 mm 3 mps 746 mmHg 49%
    15:00 +38°C° 0 mm 3 mps 746 mmHg 47%
    16:00 +37°C° 0 mm 3 mps 746 mmHg 51%
    17:00 +37°C° 0 mm 2 mps 745 mmHg 55%
    18:00 +36°C° 0 mm 2 mps 745 mmHg 58%
    19:00 +35°C° 0 mm 2 mps 746 mmHg 61%
    20:00 +34°C° 0 mm 2 mps 746 mmHg 63%
    21:00 +32°C° 0 mm 2 mps 747 mmHg 65%
    22:00 +32°C° 0 mm 1 mps 747 mmHg 67%
    23:00 +32°C° 0 mm 1 mps 747 mmHg 69%

    27 August, Tuesday

    Time Temperature Precipitation Wind Pressure Humidity
    00:00 +31°C° 0 mm 1 mps 747 mmHg 71%
    01:00 +31°C° 0 mm 1 mps 747 mmHg 73%
    02:00 +31°C° 0 mm 1 mps 747 mmHg 75%
    03:00 +30°C° 0 mm 1 mps 746 mmHg 76%
    04:00 +30°C° 0 mm 1 mps 746 mmHg 78%
    05:00 +30°C° 0 mm 1 mps 746 mmHg 79%
    06:00 +30°C° 0 mm 1 mps 746 mmHg 80%
    07:00 +31°C° 0 mm 2 mps 747 mmHg 75%
    08:00 +34°C° 0 mm 2 mps 747 mmHg 71%
    09:00 +35°C° 0 mm 2 mps 747 mmHg 66%
    10:00 +36°C° 0 mm 3 mps 747 mmHg 62%
    11:00 +37°C° 0 mm 3 mps 747 mmHg 57%
    12:00 +38°C° 0 mm 3 mps 747 mmHg 53%
    13:00 +38°C° 0 mm 2 mps 746 mmHg 53%
    14:00 +38°C° 0 mm 2 mps 745 mmHg 53%
    15:00 +37°C° 0 mm 1 mps 745 mmHg 53%
    16:00 +36°C° 0 mm 1 mps 744 mmHg 55%
    17:00 +36°C° 0 mm 1 mps 744 mmHg 57%
    18:00 +34°C° 0 mm 0 mps 744 mmHg 59%
    19:00 +33°C° 0 mm 0 mps 745 mmHg 60%
    20:00 +32°C° 0 mm 0 mps 746 mmHg 61%
    21:00 +33°C° 0 mm 1 mps 746 mmHg 63%
    22:00 +33°C° 0 mm 1 mps 746 mmHg 64%
    23:00 +33°C° 0 mm 1 mps 747 mmHg 65%
    Show more